Location: Mountain View
(37.3861°N, 122.0839°W)
Time: 15:21:38
(UTC-07:00)

Envisat - Visible Passes

Search period start: 18 October 2017 00:00
Search period end: 28 October 2017 00:00
Orbit: 764 x 766 km, 98.2° (Epoch: 18 October)

Date Brightness Start Highest point End Pass type
(mag) Time Alt. Az. Time Alt. Az. Time Alt. Az.
18 Oct 4.7 19:52:45 16° NE 19:52:45 16° NE 19:54:33 10° NNE visible
18 Oct 5.2 21:32:58 19° NW 21:32:58 19° NW 21:34:32 10° NNW visible
19 Oct 4.6 20:55:59 24° N 20:55:59 24° N 20:58:00 10° N visible
20 Oct 4.6 20:19:00 21° NNE 20:19:00 21° NNE 20:20:54 10° N visible
20 Oct 5.9 21:59:13 12° NW 21:59:13 12° NW 21:59:34 10° NW visible
21 Oct 4.9 19:42:01 13° NE 19:42:01 13° NE 19:42:56 10° NNE visible
21 Oct 5.2 21:22:14 18° NNW 21:22:14 18° NNW 21:23:32 10° NNW visible
22 Oct 4.8 20:45:15 20° N 20:45:15 20° N 20:46:51 10° N visible
23 Oct 4.8 20:08:16 16° NNE 20:08:16 16° NNE 20:09:33 10° NNE visible
23 Oct 5.8 21:48:29 11° NW 21:48:29 11° NW 21:48:46 10° NNW visible
24 Oct 5.3 21:11:29 16° NNW 21:11:29 16° NNW 21:12:30 10° NNW visible
25 Oct 5.0 20:34:30 17° N 20:34:30 17° N 20:35:38 10° N visible
26 Oct 5.1 19:57:31 12° NNE 19:57:31 12° NNE 19:58:07 10° NNE visible
26 Oct 5.8 21:37:43 11° NNW 21:37:43 11° NNW 21:37:52 10° NNW visible
27 Oct 5.4 21:00:44 14° N 21:00:44 14° N 21:01:24 10° N visible
